CZ-3C DEB, 48545

Orbit data source: Space-Track

CZ-3C DEB, 48545 is space debris in HEO originally from a launch on Sun, 31 Oct 2010 UTC launched from the Xichang Space Center, China (XSC). Debris objects in space refer to the collection of defunct objects orbiting the Earth. Examples of debris include non-operational satellites, rocket bodies, and fragments generated from explosions, collisions, or faulty payload assembly.

Loading next visibility...
Identifier
48545, 2010-057BQ
Orbit
HEO
Country
Flag of CNCN / PRC
Related business
Manufacturer
CALT
Mission
Spacecraft
Bus & Motor
Unknown
Mass
Unknown
Launch date (UTC)
2010-10-31 (15 years ago)
Launch vehicle
Unknown
Launch site
Xichang Space Center, China (XSC)
Object type
Payload
Rocket body
Debris
Shape & HBR
Unknown shape, 0.2 m
Radar Cross Section
Medium (>0.1 m² and <1 m²)

Expand to show TLE details & history
Last TLE update: 3 months ago

TLE from 3 months ago
0 CZ-3C DEB
1 48545U 10057BQ  25333.08454050  .00021278  00000-0  64129-2 0  9995
2 48545  17.9814 159.7826 5636146 224.1372  73.8290  4.56483550118052
Epoch: 2025-11-29T02:01Z
TLE epoch observation values (Epoch: 2025-11-29T02:01:44.299Z)
Latitude
-0.00009°
Longitude
61.12157°
Altitude
11,202.079 km
Speed
4.402 km/s
True Right ascension
10h 39m 05s
True Declination
0° 00' 00"
Sunlit
Object was in daylight at epoch
Visualization orbit readout
Latitude
Unknown
Longitude
Unknown
Altitude
Unknown
Speed
Unknown
Apparent Right ascension
Unknown
Apparent Declination
Unknown
Sunlit
N/A
Visualization observer readout
Local Sidereal Time
16:46:13
Azimuth
Unknown
Elevation
Unknown
Doppler factor
Unknown
Orbital elements
Apogee altitude
17,630.74 km
Perigee altitude
322.442 km
Semi-major axis
15,354.728 km
Eccentricity
0.56361
Inclination
17.9814°
RAAN
159.7826°
Arg. of periapsis
224.1372°
True anomaly
135.88122°
Mean anomaly
73.829°
Eccentric anomaly
105.01867°
Mean motion
1.14072 °/min
Orbital period
315.59 mins
BSTAR
0.0064129
Loading maneuver chart data...
Computing Atmospheric mass density...
Loading historical data...
Loading historical data...
Loading historical data...
Loading historical data...
Loading historical data...
Loading historical data...
Loading historical data...

Documentation

Showing up to 5 results
|